Escanaba, MI

6:48 PM EDT on March 22, 2017 (GMT -0400)
Delta County

Weather History for KESC - October, 2012

Change the Weather History Date:

Wednesday, October 31, 2012

  Actual Average Record
Temperature  
Mean Temperature 36 °F -  
Max Temperature 39 °F 49 °F 67 °F (1958)
Min Temperature 33 °F 36 °F 21 °F (1954)
Degree Days  
Heating Degree Days 29    
Moisture  
Dew Point 30 °F    
Average Humidity 76    
Maximum Humidity 87    
Minimum Humidity 65    
Precipitation  
Precipitation 0.00 in - - ()
Sea Level Pressure  
Sea Level Pressure 29.78 in    
Wind  
Wind Speed 14 mph (NNW)    
Max Wind Speed 21 mph    
Max Gust Speed 30 mph    
Visibility 10 miles    
Events      
Averages and records for this station are not official NWS values.
T = Trace of Precipitation, MM = Missing Value Source: NWS Daily Summary

Daily Weather History Graph

Daily Weather History Graph

Search for Another Location

Airport or City:

Trip Planner

Search our weather history database for the weather conditions in past years. The results will help you decide how hot, cold, wet, or windy it might be!

Date:

Astronomy

Oct. 31, 2012 Rise Set
Actual Time 8:27 AM EDT 6:35 PM EDT
Civil Twilight 7:56 AM EDT 7:06 PM EDT
Nautical Twilight 7:21 AM EDT 7:41 PM EDT
Astronomical Twilight 6:46 AM EDT 8:16 PM EDT
Moon 7:40 PM EDT (10/31) 10:13 AM EDT (10/31)
Length of Visible Light 11h 10m
Length of Day
10h 08m
Full, 97% of the Moon is Illuminated
Oct 31
Full
Nov 6
Last Quarter
Nov 13
New
Nov 20
First Quarter
Nov 28
Full

Hourly Weather History & Observations

Time (EDT) Temp. Windchill Dew Point Humidity Pressure Visibility Wind Dir Wind Speed Gust Speed Precip Events Conditions
12:15 AM 35.6 °F 25.5 °F 30.2 °F 81% 29.82 in 10.0 mi North 17.3 mph 25.3 mph N/A   Overcast
12:35 AM 35.6 °F 25.2 °F 28.4 °F 75% 29.82 in 10.0 mi North 18.4 mph 26.5 mph N/A   Overcast
12:55 AM 35.6 °F 25.9 °F 28.4 °F 75% 29.82 in 10.0 mi North 16.1 mph 25.3 mph N/A   Overcast
1:15 AM 35.6 °F 26.6 °F 28.4 °F 75% 29.82 in 10.0 mi North 13.8 mph 24.2 mph N/A   Overcast
1:35 AM 35.6 °F 26.2 °F 28.4 °F 75% 29.81 in 10.0 mi North 15.0 mph 27.6 mph N/A   Overcast
1:55 AM 35.6 °F 26.6 °F 28.4 °F 75% 29.81 in 10.0 mi NNW 13.8 mph 20.7 mph N/A   Overcast
2:15 AM 35.6 °F 25.5 °F 28.4 °F 75% 29.81 in 10.0 mi NNW 17.3 mph 23.0 mph N/A   Overcast
2:35 AM 35.6 °F 27.5 °F 30.2 °F 81% 29.80 in 10.0 mi North 11.5 mph 18.4 mph N/A   Overcast
2:55 AM 35.6 °F 28.0 °F 30.2 °F 81% 29.80 in 10.0 mi NNW 10.4 mph 18.4 mph N/A   Overcast
3:15 AM 35.6 °F 27.5 °F 30.2 °F 81% 29.80 in 10.0 mi North 11.5 mph 19.6 mph N/A   Overcast
3:35 AM 35.6 °F 27.5 °F 30.2 °F 81% 29.79 in 10.0 mi North 11.5 mph 18.4 mph N/A   Overcast
3:55 AM 35.6 °F 27.5 °F 30.2 °F 81% 29.79 in 10.0 mi NNW 11.5 mph 17.3 mph N/A   Overcast
4:15 AM 35.6 °F 28.0 °F 30.2 °F 81% 29.79 in 10.0 mi NNW 10.4 mph 20.7 mph N/A   Overcast
4:35 AM 35.6 °F 27.1 °F 30.2 °F 81% 29.79 in 10.0 mi NNW 12.7 mph 21.9 mph N/A   Overcast
4:55 AM 35.6 °F 27.1 °F 30.2 °F 81% 29.79 in 10.0 mi North 12.7 mph 19.6 mph N/A   Overcast
5:35 AM 35.6 °F 29.9 °F 30.2 °F 81% 29.79 in 10.0 mi NNW 6.9 mph - N/A   Overcast
5:55 AM 35.6 °F 27.5 °F 30.2 °F 81% 29.79 in 10.0 mi NNW 11.5 mph 16.1 mph N/A   Overcast
6:15 AM 35.6 °F 27.1 °F 30.2 °F 81% 29.79 in 10.0 mi North 12.7 mph 18.4 mph N/A   Overcast
6:35 AM 35.6 °F 28.6 °F 30.2 °F 81% 29.79 in 9.0 mi North 9.2 mph - N/A   Overcast
6:55 AM 35.6 °F 28.6 °F 30.2 °F 81% 29.78 in 8.0 mi North 9.2 mph - N/A   Overcast
7:15 AM 35.6 °F 29.9 °F 30.2 °F 81% 29.78 in 9.0 mi NNW 6.9 mph 16.1 mph N/A   Overcast
7:35 AM 35.6 °F 28.0 °F 32.0 °F 87% 29.78 in 8.0 mi NNW 10.4 mph - N/A   Overcast
7:55 AM 35.6 °F 28.0 °F 30.2 °F 81% 29.78 in 10.0 mi NNW 10.4 mph 16.1 mph N/A   Overcast
8:15 AM 35.6 °F 27.5 °F 30.2 °F 81% 29.78 in 10.0 mi NNW 11.5 mph 17.3 mph N/A   Overcast
8:35 AM 35.6 °F 28.0 °F 30.2 °F 81% 29.77 in 10.0 mi NNW 10.4 mph 20.7 mph N/A   Overcast
8:55 AM 35.6 °F 27.1 °F 30.2 °F 81% 29.77 in 10.0 mi NNW 12.7 mph - N/A   Overcast
9:15 AM 35.6 °F 27.5 °F 30.2 °F 81% 29.77 in 10.0 mi NNW 11.5 mph 17.3 mph N/A   Overcast
9:35 AM 35.6 °F 27.1 °F 30.2 °F 81% 29.77 in 10.0 mi NNW 12.7 mph 19.6 mph N/A   Overcast
9:55 AM 35.6 °F 28.6 °F 30.2 °F 81% 29.77 in 10.0 mi North 9.2 mph 18.4 mph N/A   Overcast
10:15 AM 37.4 °F 29.8 °F 30.2 °F 75% 29.77 in 10.0 mi NNW 11.5 mph 20.7 mph N/A   Overcast
10:35 AM 37.4 °F 28.2 °F 30.2 °F 75% 29.77 in 10.0 mi NNW 16.1 mph 21.9 mph N/A   Overcast
10:55 AM 37.4 °F 28.9 °F 30.2 °F 75% 29.77 in 10.0 mi NNW 13.8 mph 21.9 mph N/A   Overcast
11:15 AM 37.4 °F 28.5 °F 30.2 °F 75% 29.77 in 10.0 mi NNW 15.0 mph 21.9 mph N/A   Overcast
11:35 AM 37.4 °F 29.8 °F 32.0 °F 81% 29.77 in 9.0 mi NNW 11.5 mph 20.7 mph N/A   Overcast
11:55 AM 37.4 °F 28.2 °F 32.0 °F 81% 29.76 in 10.0 mi NNW 16.1 mph 21.9 mph N/A   Overcast
12:15 PM 37.4 °F 28.5 °F 32.0 °F 81% 29.76 in 10.0 mi NW 15.0 mph 25.3 mph N/A   Overcast
12:35 PM 37.4 °F 28.9 °F 32.0 °F 81% 29.77 in 10.0 mi NNW 13.8 mph 20.7 mph N/A   Overcast
12:55 PM 37.4 °F 29.3 °F 33.8 °F 87% 29.77 in 9.0 mi NNW 12.7 mph 18.4 mph N/A   Overcast
1:15 PM 37.4 °F 28.5 °F 33.8 °F 87% 29.76 in 9.0 mi NNW 15.0 mph 21.9 mph N/A   Overcast
1:35 PM 37.4 °F 28.5 °F 33.8 °F 87% 29.76 in 6.0 mi NNW 15.0 mph 21.9 mph N/A   Overcast
1:55 PM 37.4 °F 29.8 °F 33.8 °F 87% 29.76 in 8.0 mi NW 11.5 mph 18.4 mph N/A   Overcast
2:15 PM 37.4 °F 28.9 °F 32.0 °F 81% 29.76 in 10.0 mi NNW 13.8 mph 21.9 mph N/A   Mostly Cloudy
2:35 PM 39.2 °F 31.2 °F 33.8 °F 81% 29.76 in 10.0 mi NNW 13.8 mph 25.3 mph N/A   Overcast
2:55 PM 39.2 °F 31.2 °F 30.2 °F 70% 29.75 in 10.0 mi NNW 13.8 mph 26.5 mph N/A   Overcast
3:15 PM 39.2 °F 30.8 °F 30.2 °F 70% 29.75 in 10.0 mi NNW 15.0 mph 28.8 mph N/A   Overcast
3:35 PM 39.2 °F 29.8 °F 30.2 °F 70% 29.75 in 10.0 mi NNW 18.4 mph 26.5 mph N/A   Overcast
3:55 PM 39.2 °F 30.8 °F 30.2 °F 70% 29.75 in 10.0 mi NNW 15.0 mph 26.5 mph N/A   Overcast
4:15 PM 39.2 °F 30.8 °F 30.2 °F 70% 29.75 in 10.0 mi NNW 15.0 mph 28.8 mph N/A   Overcast
4:35 PM 39.2 °F 30.5 °F 30.2 °F 70% 29.75 in 10.0 mi NNW 16.1 mph 23.0 mph N/A   Overcast
4:55 PM 39.2 °F 30.2 °F 30.2 °F 70% 29.75 in 10.0 mi NW 17.3 mph 26.5 mph N/A   Overcast
5:15 PM 39.2 °F 29.8 °F 30.2 °F 70% 29.76 in 10.0 mi NNW 18.4 mph 25.3 mph N/A   Overcast
5:35 PM 39.2 °F 29.3 °F 30.2 °F 70% 29.76 in 10.0 mi NNW 20.7 mph 29.9 mph N/A   Overcast
5:55 PM 39.2 °F 30.8 °F 30.2 °F 70% 29.76 in 10.0 mi NW 15.0 mph 21.9 mph N/A   Overcast
6:15 PM 39.2 °F 29.8 °F 28.4 °F 65% 29.76 in 10.0 mi NW 18.4 mph 25.3 mph N/A   Overcast
6:35 PM 39.2 °F 30.8 °F 28.4 °F 65% 29.77 in 10.0 mi NW 15.0 mph 20.7 mph N/A   Overcast
6:55 PM 37.4 °F 28.5 °F 28.4 °F 70% 29.78 in 10.0 mi NW 15.0 mph 21.9 mph N/A   Overcast
7:15 PM 37.4 °F 28.9 °F 28.4 °F 70% 29.79 in 10.0 mi NNW 13.8 mph 19.6 mph N/A   Overcast
7:35 PM 37.4 °F 29.8 °F 26.6 °F 65% 29.80 in 10.0 mi NNW 11.5 mph 23.0 mph N/A   Overcast
7:55 PM 37.4 °F 28.5 °F 26.6 °F 65% 29.79 in 10.0 mi NW 15.0 mph 23.0 mph N/A   Overcast
8:15 PM 37.4 °F 28.2 °F 26.6 °F 65% 29.79 in 10.0 mi NW 16.1 mph 26.5 mph N/A   Overcast
8:35 PM 35.6 °F 26.2 °F 26.6 °F 70% 29.79 in 10.0 mi NW 15.0 mph 24.2 mph N/A   Overcast
8:55 PM 35.6 °F 27.5 °F 26.6 °F 70% 29.79 in 10.0 mi NW 11.5 mph 20.7 mph N/A   Mostly Cloudy
9:15 PM 35.6 °F 27.1 °F 26.6 °F 70% 29.79 in 10.0 mi NW 12.7 mph 16.1 mph N/A   Scattered Clouds
9:35 PM 35.6 °F 27.1 °F 26.6 °F 70% 29.79 in 10.0 mi WNW 12.7 mph 18.4 mph N/A   Overcast
10:15 PM 33.8 °F 25.8 °F 26.6 °F 75% 29.79 in 10.0 mi NW 10.4 mph - N/A   Overcast
10:35 PM 33.8 °F 24.3 °F 24.8 °F 70% 29.78 in 10.0 mi NW 13.8 mph 17.3 mph N/A   Overcast
11:15 PM 33.8 °F 24.3 °F 24.8 °F 70% 29.78 in 10.0 mi NW 13.8 mph 20.7 mph N/A   Overcast
11:35 PM 33.8 °F 23.5 °F 24.8 °F 70% 29.77 in 10.0 mi WNW 16.1 mph 19.6 mph N/A   Overcast